| time (UTC) | temp F | wind direction | speed knots | gust knots | rain 1hr in | rain 24hr in | rain mn in | humidity % | barometer mb |
| 20260504173236 | 74 | 236 | 16.5 | 24.3 | 0.00 | 0.00 | 0.00 | 25 | 999.7 |
| 20260504172736 | 74 | 236 | 16.5 | 24.3 | 0.00 | 0.00 | 0.00 | 26 | 999.9 |
| 20260504172236 | 74 | 231 | 14.8 | 24.3 | 0.00 | 0.00 | 0.00 | 27 | 999.9 |
| 20260504171736 | 74 | 218 | 18.2 | 26.9 | 0.00 | 0.00 | 0.00 | 26 | 1000.0 |
| 20260504171236 | 74 | 223 | 15.6 | 26.9 | 0.00 | 0.00 | 0.00 | 26 | 1000.0 |
| 20260504170736 | 74 | 235 | 15.6 | 26.9 | 0.00 | 0.00 | 0.00 | 29 | 1000.1 |
| 20260504170236 | 74 | 233 | 15.6 | 25.2 | 0.00 | 0.00 | 0.00 | 26 | 1000.1 |
| 20260504160236 | 71 | 207 | 13.9 | 21.7 | 0.00 | 0.00 | 0.00 | 34 | 1001.0 |
| 20260504150736 | 68 | 176 | 11.3 | 17.4 | 0.00 | 0.00 | 0.00 | 47 | 1001.5 |
| 20260504150236 | 67 | 202 | 8.7 | 13.9 | 0.00 | 0.00 | 0.00 | 49 | 1001.6 |
| 20260504141238 | 63 | 198 | 7.0 | 10.4 | 0.00 | 0.00 | 0.00 | 59 | 1002.1 |
| 20260504140736 | 62 | 205 | 7.8 | 12.2 | 0.00 | 0.00 | 0.00 | 58 | 1002.2 |
| 20260504140236 | 62 | 190 | 7.8 | 12.2 | 0.00 | 0.00 | 0.00 | 59 | 1002.3 |
| 20260504110400 | 48 | 142 | 2.6 | 7.0 | 0.00 | 0.00 | 0.00 | 80 | 1002.3 |
| 20260504100400 | 47 | 157 | 2.6 | 5.2 | 0.00 | 0.00 | 0.00 | 79 | 1002.4 |
| 20260504081934 | 51 | 141 | 3.5 | 6.1 | 0.00 | 0.00 | 0.00 | 74 | 1002.8 |
| 20260504081434 | 51 | 146 | 3.5 | 6.1 | 0.00 | 0.00 | 0.00 | 73 | 1002.9 |
| 20260504080441 | 51 | 141 | 2.6 | 6.1 | 0.00 | 0.00 | 0.00 | 74 | 1002.9 |
| 20260504070246 | 51 | 140 | 3.5 | 6.1 | 0.00 | 0.00 | 0.00 | 73 | 1003.6 |
| 20260504050442 | 51 | 160 | 7.0 | 11.3 | 0.00 | 0.00 | 0.00 | 73 | 1005.0 |
| 20260504045943 | 51 | 168 | 6.1 | 10.4 | 0.00 | 0.00 | 0.00 | 73 | 1005.0 |
| 20260504045442 | 51 | 164 | 6.1 | 9.6 | 0.00 | 0.00 | 0.00 | 73 | 1005.1 |
| 20260504044943 | 51 | 166 | 6.1 | 10.4 | 0.00 | 0.00 | 0.00 | 73 | 1005.1 |
| 20260504044442 | 51 | 167 | 6.1 | 10.4 | 0.00 | 0.00 | 0.00 | 73 | 1005.1 |
| 20260504043942 | 51 | 170 | 6.1 | 10.4 | 0.00 | 0.00 | 0.00 | 73 | 1005.2 |
| 20260504043442 | 51 | 164 | 5.2 | 9.6 | 0.00 | 0.00 | 0.00 | 73 | 1005.2 |
| 20260504042442 | 50 | 159 | 5.2 | 9.6 | 0.00 | 0.00 | 0.00 | 73 | 1005.3 |
| 20260504041055 | 50 | 154 | 5.2 | 8.7 | 0.00 | 0.00 | 0.00 | 74 | 1005.4 |
| 20260504040553 | 50 | 160 | 5.2 | 8.7 | 0.00 | 0.00 | 0.00 | 73 | 1005.4 |
| 20260504040053 | 51 | 161 | 5.2 | 8.7 | 0.00 | 0.00 | 0.00 | 73 | 1005.5 |
| 20260504035553 | 51 | 152 | 5.2 | 8.7 | 0.00 | 0.00 | 0.00 | 73 | 1005.5 |
| 20260504035053 | 51 | 157 | 5.2 | 8.7 | 0.00 | 0.00 | 0.00 | 72 | 1005.5 |
| 20260504034553 | 51 | 162 | 5.2 | 8.7 | 0.00 | 0.00 | 0.00 | 72 | 1005.6 |
| 20260504034053 | 51 | 166 | 4.3 | 7.8 | 0.00 | 0.00 | 0.00 | 72 | 1005.6 |
| 20260504033553 | 51 | 163 | 5.2 | 9.6 | 0.00 | 0.00 | 0.00 | 72 | 1005.6 |
| 20260504033053 | 51 | 157 | 5.2 | 9.6 | 0.00 | 0.00 | 0.00 | 71 | 1005.6 |
| 20260504032553 | 51 | 152 | 6.1 | 9.6 | 0.00 | 0.00 | 0.00 | 71 | 1005.6 |
| 20260504032053 | 51 | 160 | 5.2 | 9.6 | 0.00 | 0.00 | 0.00 | 71 | 1005.7 |
| 20260504031553 | 51 | 157 | 4.3 | 8.7 | 0.00 | 0.00 | 0.00 | 71 | 1005.7 |
| 20260504031053 | 51 | 153 | 4.3 | 9.6 | 0.00 | 0.00 | 0.00 | 70 | 1005.8 |
| 20260504030553 | 51 | 147 | 5.2 | 9.6 | 0.00 | 0.00 | 0.00 | 70 | 1005.7 |
| 20260504030053 | 51 | 162 | 4.3 | 8.7 | 0.00 | 0.00 | 0.00 | 70 | 1005.7 |
| 20260504025553 | 52 | 156 | 5.2 | 9.6 | 0.00 | 0.00 | 0.00 | 70 | 1005.8 |
| 20260504025053 | 52 | 152 | 7.0 | 10.4 | 0.00 | 0.00 | 0.00 | 69 | 1005.8 |
| 20260504024553 | 52 | 151 | 7.0 | 13.9 | 0.00 | 0.00 | 0.00 | 69 | 1005.8 |
| 20260504024053 | 52 | 150 | 7.0 | 13.9 | 0.00 | 0.00 | 0.00 | 69 | 1005.9 |
| 20260504023553 | 52 | 151 | 6.1 | 12.2 | 0.00 | 0.00 | 0.00 | 69 | 1005.9 |
| 20260504023054 | 53 | 166 | 7.8 | 12.2 | 0.00 | 0.00 | 0.00 | 69 | 1006.0 |
| 20260504022553 | 53 | 166 | 6.1 | 12.2 | 0.00 | 0.00 | 0.00 | 69 | 1005.9 |
| 20260504022053 | 53 | 158 | 8.7 | 12.2 | 0.00 | 0.00 | 0.00 | 68 | 1005.9 |
| 20260504021553 | 53 | 161 | 7.8 | 12.2 | 0.00 | 0.00 | 0.00 | 69 | 1005.9 |
| 20260504021053 | 53 | 161 | 7.0 | 11.3 | 0.00 | 0.00 | 0.00 | 68 | 1005.8 |
| 20260504020553 | 53 | 165 | 7.8 | 13.9 | 0.00 | 0.00 | 0.00 | 68 | 1005.8 |
| 20260504020053 | 53 | 160 | 9.6 | 13.9 | 0.00 | 0.00 | 0.00 | 68 | 1005.8 |
| 20260504015553 | 53 | 154 | 6.1 | 16.5 | 0.00 | 0.00 | 0.00 | 68 | 1005.8 |
| 20260504015053 | 54 | 157 | 7.8 | 16.5 | 0.00 | 0.00 | 0.00 | 68 | 1005.7 |
| 20260504014553 | 54 | 162 | 9.6 | 13.9 | 0.00 | 0.00 | 0.00 | 67 | 1005.7 |
| 20260504014053 | 54 | 161 | 8.7 | 14.8 | 0.00 | 0.00 | 0.00 | 67 | 1005.6 |
| 20260504013553 | 54 | 156 | 10.4 | 14.8 | 0.00 | 0.00 | 0.00 | 67 | 1005.6 |
| 20260504013055 | 54 | 158 | 8.7 | 15.6 | 0.00 | 0.00 | 0.00 | 67 | 1005.6 |
| 20260504012053 | 54 | 156 | 8.7 | 14.8 | 0.00 | 0.00 | 0.00 | 66 | 1005.6 |
| 20260504011553 | 54 | 161 | 7.8 | 14.8 | 0.00 | 0.00 | 0.00 | 66 | 1005.7 |
| 20260504011053 | 55 | 166 | 11.3 | 14.8 | 0.00 | 0.00 | 0.00 | 66 | 1005.8 |
| 20260504010553 | 55 | 162 | 9.6 | 16.5 | 0.00 | 0.00 | 0.00 | 66 | 1005.7 |
| 20260504010053 | 55 | 166 | 11.3 | 16.5 | 0.00 | 0.00 | 0.00 | 65 | 1005.7 |
| 20260504005053 | 55 | 168 | 10.4 | 19.1 | 0.00 | 0.00 | 0.00 | 64 | 1005.8 |
| 20260504004553 | 55 | 165 | 11.3 | 17.4 | 0.00 | 0.00 | 0.00 | 64 | 1005.8 |
| 20260504004053 | 55 | 168 | 13.0 | 17.4 | 0.00 | 0.00 | 0.00 | 63 | 1005.8 |
| 20260504003553 | 56 | 170 | 9.6 | 17.4 | 0.00 | 0.00 | 0.00 | 63 | 1005.9 |
| 20260504003053 | 56 | 162 | 10.4 | 19.1 | 0.00 | 0.00 | 0.00 | 63 | 1005.9 |
| 20260504002553 | 56 | 169 | 13.9 | 20.0 | 0.00 | 0.00 | 0.00 | 62 | 1005.8 |
| 20260504002053 | 56 | 170 | 13.9 | 20.0 | 0.00 | 0.00 | 0.00 | 62 | 1005.8 |
| 20260504001553 | 56 | 168 | 10.4 | 24.3 | 0.00 | 0.00 | 0.00 | 62 | 1006.0 |
| 20260504001055 | 57 | 180 | 13.0 | 24.3 | 0.00 | 0.00 | 0.00 | 61 | 1006.1 |
| 20260504000553 | 57 | 166 | 10.4 | 23.5 | 0.00 | 0.00 | 0.00 | 61 | 1006.2 |
| 20260504000053 | 57 | 180 | 14.8 | 23.5 | 0.00 | 0.00 | 0.00 | 60 | 1006.2 |
| 20260503235134 | 57 | 175 | 14.8 | 22.6 | 0.00 | 0.00 | 0.00 | 60 | 1006.1 |
| 20260503234636 | 57 | 169 | 13.9 | 20.9 | 0.00 | 0.00 | 0.00 | 60 | 1006.2 |
| 20260503234134 | 57 | 169 | 13.0 | 20.9 | 0.00 | 0.00 | 0.00 | 60 | 1006.2 |
| 20260503233635 | 57 | 171 | 14.8 | 20.0 | 0.00 | 0.00 | 0.00 | 60 | 1006.3 |
| 20260503233134 | 57 | 169 | 12.2 | 22.6 | 0.00 | 0.00 | 0.00 | 61 | 1006.3 |
| 20260503232634 | 57 | 164 | 12.2 | 22.6 | 0.00 | 0.00 | 0.00 | 60 | 1006.4 |
| 20260503232134 | 57 | 175 | 12.2 | 22.6 | 0.00 | 0.00 | 0.00 | 60 | 1006.5 |
| 20260503231634 | 56 | 182 | 11.3 | 23.5 | 0.00 | 0.00 | 0.00 | 60 | 1006.6 |
| 20260503231134 | 56 | 166 | 13.9 | 23.5 | 0.00 | 0.00 | 0.00 | 61 | 1006.6 |
| 20260503230543 | 56 | 165 | 11.3 | 20.9 | 0.00 | 0.00 | 0.00 | 60 | 1006.8 |
| 20260503230000 | 56 | 167 | 13.9 | 19.1 | 0.00 | 0.00 | 0.00 | 60 | 1006.9 |
| 20260503225248 | 56 | 171 | 12.2 | 20.9 | 0.00 | 0.00 | 0.00 | 61 | 1006.9 |
| 20260503224748 | 56 | 167 | 12.2 | 25.2 | 0.00 | 0.00 | 0.00 | 61 | 1007.0 |
| 20260503224248 | 56 | 177 | 13.0 | 25.2 | 0.00 | 0.00 | 0.00 | 60 | 1007.2 |
| 20260503223748 | 56 | 168 | 16.5 | 26.1 | 0.00 | 0.00 | 0.00 | 60 | 1007.3 |
| 20260503223248 | 56 | 174 | 18.2 | 26.1 | 0.00 | 0.00 | 0.00 | 60 | 1007.4 |
| 20260503222748 | 56 | 173 | 13.9 | 20.9 | 0.00 | 0.00 | 0.00 | 60 | 1007.4 |
| 20260503222248 | 56 | 174 | 12.2 | 22.6 | 0.00 | 0.00 | 0.00 | 61 | 1007.6 |
| 20260503221748 | 56 | 173 | 13.9 | 22.6 | 0.00 | 0.00 | 0.00 | 61 | 1007.6 |
| 20260503221248 | 56 | 171 | 13.9 | 22.6 | 0.00 | 0.00 | 0.00 | 61 | 1007.7 |
| 20260503220748 | 56 | 161 | 17.4 | 25.2 | 0.00 | 0.00 | 0.00 | 60 | 1007.7 |
| 20260503220248 | 56 | 171 | 15.6 | 25.2 | 0.00 | 0.00 | 0.00 | 61 | 1007.8 |
| 20260503215748 | 56 | 163 | 13.9 | 26.1 | 0.00 | 0.00 | 0.00 | 61 | 1007.9 |
| 20260503215248 | 55 | 177 | 13.9 | 30.4 | 0.00 | 0.00 | 0.00 | 62 | 1007.8 |
| 20260503214748 | 55 | 166 | 15.6 | 30.4 | 0.00 | 0.00 | 0.00 | 62 | 1007.9 |
| 20260503214248 | 55 | 164 | 17.4 | 27.8 | 0.00 | 0.00 | 0.00 | 61 | 1007.9 |
| 20260503213748 | 55 | 162 | 15.6 | 20.9 | 0.00 | 0.00 | 0.00 | 62 | 1007.9 |
| 20260503213248 | 55 | 174 | 13.9 | 24.3 | 0.00 | 0.00 | 0.00 | 62 | 1007.9 |
| 20260503212748 | 55 | 173 | 15.6 | 24.3 | 0.00 | 0.00 | 0.00 | 62 | 1007.9 |
| 20260503212248 | 55 | 179 | 10.4 | 21.7 | 0.00 | 0.00 | 0.00 | 63 | 1008.0 |
| 20260503211748 | 55 | 170 | 13.0 | 23.5 | 0.00 | 0.00 | 0.00 | 62 | 1008.0 |
| 20260503211248 | 55 | 175 | 16.5 | 23.5 | 0.00 | 0.00 | 0.00 | 62 | 1008.0 |
| 20260503210748 | 55 | 177 | 11.3 | 20.0 | 0.00 | 0.00 | 0.00 | 63 | 1008.0 |
| 20260503210248 | 55 | 181 | 13.0 | 20.0 | 0.00 | 0.00 | 0.00 | 63 | 1008.0 |
| 20260503205748 | 55 | 171 | 11.3 | 17.4 | 0.00 | 0.00 | 0.00 | 63 | 1008.0 |
| 20260503205248 | 55 | 173 | 9.6 | 20.0 | 0.00 | 0.00 | 0.00 | 64 | 1008.1 |
| 20260503204748 | 55 | 189 | 13.9 | 20.0 | 0.00 | 0.00 | 0.00 | 63 | 1008.3 |
| 20260503204248 | 55 | 175 | 13.9 | 20.9 | 0.00 | 0.00 | 0.00 | 63 | 1008.4 |
| 20260503203748 | 54 | 182 | 12.2 | 20.9 | 0.00 | 0.00 | 0.00 | 63 | 1008.4 |
| 20260503203248 | 54 | 180 | 13.9 | 20.9 | 0.00 | 0.00 | 0.00 | 64 | 1008.6 |
| 20260503202748 | 54 | 179 | 12.2 | 17.4 | 0.00 | 0.00 | 0.00 | 65 | 1008.7 |
| 20260503202248 | 54 | 187 | 11.3 | 16.5 | 0.00 | 0.00 | 0.00 | 65 | 1008.8 |
| 20260503201748 | 54 | 193 | 9.6 | 16.5 | 0.00 | 0.00 | 0.00 | 66 | 1008.9 |
| 20260503201248 | 54 | 192 | 11.3 | 19.1 | 0.00 | 0.00 | 0.00 | 66 | 1009.0 |
| 20260503200748 | 54 | 207 | 13.9 | 19.1 | 0.00 | 0.00 | 0.00 | 65 | 1009.2 |
| 20260503200248 | 54 | 201 | 10.4 | 18.2 | 0.00 | 0.00 | 0.00 | 64 | 1009.4 |
| 20260503195748 | 54 | 206 | 10.4 | 18.2 | 0.00 | 0.00 | 0.00 | 63 | 1009.5 |
| 20260503195248 | 54 | 219 | 13.0 | 21.7 | 0.00 | 0.00 | 0.00 | 62 | 1009.7 |
| 20260503194748 | 55 | 223 | 14.8 | 22.6 | 0.00 | 0.00 | 0.00 | 62 | 1009.7 |
| 20260503194248 | 55 | 226 | 13.0 | 26.1 | 0.00 | 0.00 | 0.00 | 62 | 1009.7 |
| 20260503193748 | 56 | 218 | 15.6 | 26.1 | 0.00 | 0.00 | 0.00 | 59 | 1009.7 |
| 20260503193248 | 56 | 205 | 16.5 | 25.2 | 0.00 | 0.00 | 0.00 | 58 | 1009.6 |
| 20260503192748 | 57 | 222 | 16.5 | 26.1 | 0.00 | 0.00 | 0.00 | 57 | 1009.9 |
| 20260503192248 | 58 | 227 | 16.5 | 28.7 | 0.00 | 0.00 | 0.00 | 57 | 1009.9 |
| 20260503191748 | 58 | 215 | 17.4 | 28.7 | 0.00 | 0.00 | 0.00 | 54 | 1009.7 |
| 20260503191248 | 58 | 225 | 16.5 | 27.8 | 0.00 | 0.00 | 0.00 | 54 | 1009.8 |
| 20260503190748 | 58 | 224 | 19.1 | 30.4 | 0.00 | 0.00 | 0.00 | 54 | 1009.9 |
| 20260503190248 | 58 | 239 | 17.4 | 30.4 | 0.00 | 0.00 | 0.00 | 55 | 1009.8 |
| 20260503185748 | 59 | 230 | 18.2 | 30.4 | 0.00 | 0.00 | 0.00 | 54 | 1010.0 |
| 20260503185248 | 59 | 222 | 21.7 | 30.4 | 0.00 | 0.00 | 0.00 | 52 | 1010.0 |
| 20260503184748 | 59 | 224 | 17.4 | 30.4 | 0.00 | 0.00 | 0.00 | 52 | 1010.1 |
| 20260503184248 | 60 | 217 | 15.6 | 30.4 | 0.00 | 0.00 | 0.00 | 52 | 1010.0 |
| 20260503183731 | 60 | 216 | 17.4 | 27.8 | 0.00 | 0.00 | 0.00 | 52 | 1010.0 |
| 20260503183138 | 60 | 206 | 20.0 | 29.5 | 0.00 | 0.00 | 0.00 | 52 | 1009.9 |
| 20260503182340 | 60 | 228 | 19.1 | 28.7 | 0.00 | 0.00 | 0.00 | 51 | 1010.0 |
| 20260503181839 | 60 | 212 | 21.7 | 28.7 | 0.00 | 0.00 | 0.00 | 50 | 1010.0 |
| 20260503181339 | 60 | 218 | 19.1 | 31.3 | 0.00 | 0.00 | 0.00 | 51 | 1010.1 |
| 20260503180839 | 59 | 234 | 20.9 | 31.3 | 0.00 | 0.00 | 0.00 | 50 | 1010.2 |
| 20260503180339 | 60 | 229 | 17.4 | 27.8 | 0.00 | 0.00 | 0.00 | 52 | 1010.1 |
| 20260503175839 | 60 | 227 | 17.4 | 30.4 | 0.00 | 0.00 | 0.00 | 50 | 1010.3 |
| 20260503175339 | 59 | 233 | 20.9 | 30.4 | 0.00 | 0.00 | 0.00 | 51 | 1010.2 |
| 20260503174839 | 60 | 222 | 17.4 | 30.4 | 0.00 | 0.00 | 0.00 | 49 | 1010.1 |
| 20260503174339 | 60 | 227 | 18.2 | 28.7 | 0.00 | 0.00 | 0.00 | 50 | 1010.3 |